#timestamp,LO_Frequency,Hit 
1505113215.4,286046996.0,N
1505113235.2,286046995.3,N
1505113255.0,286046997.8,N
1505113255.9,286046997.8,N
1505113275.8,286047000.6,N
1505113295.6,286047002.4,N
1505113315.4,286046998.5,N
1505113335.3,286046994.9,N
1505113355.1,286046996.5,N
1505113356.0,286046996.5,N
1505113375.8,286046997.1,N
1505113395.6,286046995.7,N
1505113415.5,286046997.3,N
1505113435.3,286046996.8,N
1505113455.1,286046998.2,N
1505113475.9,286047001.1,N
1505113495.7,286046998.9,N
1505113515.5,286046998.4,N
1505113535.4,286046999.1,N
1505113555.2,286046999.5,N
1505113575.0,286046996.7,N
1505113575.9,286046996.7,N
1505113595.8,286046996.1,N
1505113615.6,286046992.6,P
1505113635.4,286046995.5,N
1505113655.3,286046993.9,P
1505113675.1,286046997.6,N
1505113676.0,286046997.6,N
1505113695.8,286046998.3,N
1505113715.7,286046994.9,N
1505113735.5,286046995.3,N
1505113755.3,286046996.9,N
1505113775.2,286046996.8,N
1505113795.9,286046999.0,N
1505113815.7,286046999.2,N
1505113835.5,286047000.5,N
1505113855.4,286047002.8,N
1505113875.2,286046997.5,N
1505113895.0,286046993.8,N
1505113895.9,286046993.8,N
1505113915.8,286046993.3,N
1505113935.6,286046994.0,N
1505113955.4,286046997.2,N
1505113975.3,286046996.7,N
1505113995.1,286047001.2,N
1505113996.0,286047001.2,N
1505114015.8,286046995.4,N
1505114035.7,286046996.0,N
1505114055.5,286046995.2,N
1505114075.3,286046995.9,N
1505114095.1,286046994.6,N
1505114115.9,286046995.2,N
1505114135.7,286046995.8,N
1505114155.5,286046994.1,N
1505114175.4,286046994.7,N
1505114195.2,286046992.8,N
1505114215.0,286046992.0,P
1505114216.0,286046992.0,P
1505114235.8,286046997.5,N
1505114255.6,286046995.2,N
1505114275.4,286046997.3,N
1505114295.3,286047000.8,N
1505114315.1,286046998.6,N
1505114335.8,286046997.7,N
1505114355.7,286046995.8,N
1505114375.5,286046996.7,N
1505114395.3,286046996.7,N
1505114415.2,286046999.3,N
1505114435.9,286047001.5,N
1505114455.7,286047000.1,N
1505114475.6,286047001.1,N
1505114495.4,286046998.8,N
1505114515.2,286046999.4,N
1505114535.0,286046998.1,N
1505114536.0,286046998.1,N
1505114555.8,286047000.7,N
1505114575.6,286046998.5,N
1505114595.4,286046998.7,N
1505114615.3,286046997.0,N
1505114635.1,286046999.4,N
1505114655.8,286047000.8,N
1505114675.7,286046998.7,N
1505114695.5,286047002.4,N
1505114715.3,286047000.2,N
1505114735.2,286046997.3,N
1505114755.9,286047000.7,N
1505114775.7,286046997.9,N
1505114795.6,286046995.4,N
1505114815.4,286046998.0,N
1505114835.2,286046996.1,N
1505114855.1,286046996.1,N
1505114856.0,286046996.1,N
1505114875.8,286046995.4,N
1505114895.6,286046997.4,N
1505114915.5,286046995.7,N
1505114935.3,286046994.8,N
1505114955.1,286046989.2,P
1505114975.9,286046993.1,N
1505114995.7,286046992.9,N
1505115015.5,286046993.7,N
1505115035.4,286046992.9,N
1505115055.2,286046990.4,P
1505115075.0,286046997.7,N
1505115075.9,286046997.7,N
1505115095.8,286046994.2,N
1505115115.6,286046993.7,N
1505115135.4,286047001.0,N
1505115155.3,286047001.7,N
1505115175.1,286046999.6,N
1505115176.0,286046999.6,N
1505115195.8,286046999.5,N
1505115215.7,286047002.6,N
1505115235.5,286047002.2,N
1505115255.3,286046999.6,N
1505115275.1,286046998.6,N
1505115295.9,286047000.0,N
1505115315.7,286046998.5,N
1505115335.5,286046998.5,N
1505115355.4,286046999.9,N
1505115375.2,286047001.8,N
1505115395.0,286046998.4,N
1505115395.9,286046998.4,N
1505115415.8,286046997.3,N
1505115435.6,286046996.6,N
1505115455.4,286046999.0,N
1505115475.3,286046996.9,N
1505115495.1,286046998.1,N
1505115496.0,286046998.1,N
1505115515.8,286047000.9,N
1505115535.7,286046997.4,N
1505115555.5,286046998.1,N
1505115575.3,286046998.8,N
1505115595.2,286046998.1,N
1505115615.9,286047000.2,N
1505115635.7,286046998.4,N
1505115655.6,286047001.1,N
1505115675.4,286047001.4,N
1505115695.2,286047000.2,N
1505115715.0,286046996.5,N
1505115716.0,286046996.5,N
1505115735.8,286047000.5,N
1505115755.6,286047003.7,N
1505115775.4,286047004.1,N
1505115795.3,286047000.0,N
1505115815.1,286047001.0,N
1505115835.8,286046997.5,N
1505115855.7,286046997.3,N
1505115875.5,286046997.4,N
1505115895.3,286046997.4,N
1505115915.2,286046998.9,N
1505115935.9,286046998.4,N
1505115955.7,286046998.9,N
1505115975.6,286046997.2,N
1505115995.4,286046997.3,N
1505116015.2,286047001.0,N
1505116035.1,286046998.3,N
1505116036.0,286046998.3,N
1505116055.8,286047001.1,N
1505116075.6,286046999.3,N
1505116095.5,286046997.0,N
1505116115.3,286046995.9,N
1505116135.1,286046995.8,N
1505116155.9,286046995.3,N
1505116175.7,286046995.0,N
1505116195.5,286046997.7,N
1505116215.3,286046998.1,N
1505116235.2,286046997.1,N
1505116255.0,286046995.0,N
1505116255.9,286046995.0,N
1505116275.7,286046995.0,N
1505116295.6,286046998.9,N
1505116315.4,286046999.0,N
1505116335.3,286046993.4,P
1505116355.1,286046995.0,N
1505116356.0,286046995.0,N
1505116375.8,286046993.4,P
1505116395.7,286046999.7,N
1505116415.5,286047001.6,N
1505116435.3,286047002.6,N
1505116455.2,286047000.9,N
1505116475.9,286046999.7,N
1505116495.7,286047003.2,N
1505116515.6,286047000.3,N
1505116535.4,286047004.4,N
1505116555.2,286047004.7,N
1505116575.1,286047007.1,N
1505116576.0,286047007.1,N
1505116595.8,286047006.9,N
1505116615.6,286047003.1,N
1505116635.5,286047003.2,N
1505116655.3,286047001.5,N
1505116675.1,286046997.6,N
1505116695.9,286046999.2,N
1505116715.7,286046997.6,N
1505116735.5,286046999.1,N
1505116755.3,286046996.7,N
1505116775.2,286046997.7,N
1505116795.0,286047001.1,N
1505116795.9,286047001.1,N
